Location: ??? ???
(33.4974°N, 35.4618°E)
Time: 18:09:51
(UTC+00:00)

SAR-Lupe-4 - Pass Details

Date: 29 October 2020
Orbit: 481 x 484 km, 98.2° (Epoch: 25 November)

Event Time Altitude Azimuth Distance (km) Brightness Sun altitude
Rises 15:32:52 0° 10° (N) 2,546 7.0 -9.8°
Reaches altitude 10° 15:34:56 10° 8° (N) 1,662 6.1 -10.2°
Maximum altitude 15:38:29 72° 284° (WNW) 508 3.8 -10.9°
Drops below altitude 10° 15:42:01 10° 200° (SSW) 1,652 6.6 -11.7°
Sets 15:44:04 0° 198° (SSW) 2,527 7.6 -12.1°
